Content
SEND FEEDBACK

Daily
Averages
Monthly
Summary
Mexico

CANCUN, QUINTANA ROO


Home > North America > Mexico > Quintana Roo
Elevation: 9 meters     Latitude: 21 09N     Longitude: 086 49W

WEATHER
 
SELECT A DAY
Number of Records: 165,825;   Date Range: 1/1/95 - 9/29/14
 
SHARE

PRINT THIS DATA

[ ← Previous Day ]
WEATHER ALMANAC - 17 JUNE, 2014
[ Next Day → ]
[ °F ]   °C
Weather ElementAverageHighLow
Temperature28.2 °C31 °C (1:46 pm)26 °C (2:46 am)
Dewpoint24.3 °C25 °C (1:40 am)24 °C (4:44 am)
Humidity79.5 %94 % (2:46 am)66 % (1:46 pm)
Barometer1016.3 hPa1017.6 hPa (10:40 am)1014.6 hPa (3:45 am)
Wind Speed11.3 km/h20.4 km/h (6:43 pm)
Weather ElementAverage
Visibility11.3 km
Wind DirectionENE (63.9 °)

Weather ElementTotal
Precipitation---
Cooling Degree Days10.2 (Base 18.3)
Growing Degree Days18.5 (Base 10)
Averaged from 23 records on 17 June, 2014
WEATHER CONDITIONS BREAKOUT
WIND DIRECTION BREAKOUT
WEATHER BY HOUR - 17 JUNE, 2014
[ °F ]   °C
Local TimeTemperatureDewpointHumidityBarometerVisibilityWind DirectionWind SpeedGust SpeedPrecipitationEventsConditions
1:40 AM27 °C25 °C89 %1016.3 hPa11.3 kmENE (70°)9.3 km/hScattered Clouds
2:46 AM26 °C25 °C94 %1015.6 hPa11.3 kmCalmScattered Clouds
3:45 AM26 °C25 °C94 %1014.6 hPa11.3 kmCalmScattered Clouds
4:44 AM26 °C24 °C89 %1015.9 hPa11.3 kmENE (70°)5.6 km/hScattered Clouds
5:40 AM26 °C24 °C89 %1016.3 hPa11.3 kmNE (50°)5.6 km/hScattered Clouds
6:49 AM27 °C24 °C84 %1015.2 hPa11.3 kmEast (90°)5.6 km/hPartly Cloudy
7:48 AM29 °C24 °C74 %1016.9 hPa11.3 kmEast (80°)7.4 km/hPartly Cloudy
8:44 AM29 °C24 °C74 %1016.9 hPa11.3 kmENE (60°)14.8 km/hPartly Cloudy
9:49 AM30 °C25 °C74 %1015.9 hPa11.3 kmENE (60°)13 km/hScattered Clouds
10:40 AM30 °C24 °C70 %1017.6 hPa11.3 kmENE (60°)13 km/hMostly Cloudy
11:45 AM30 °C24 °C70 %1017.6 hPa11.3 kmENE (70°)9.3 km/hMostly Cloudy
12:50 PM30 °C25 °C74 %1016.3 hPa11.3 kmNE (40°)18.5 km/hMostly Cloudy
1:46 PM31 °C24 °C66 %1016.9 hPa11.3 kmENE (70°)16.7 km/hMostly Cloudy
2:47 PM31 °C24 °C66 %1016.6 hPa11.3 kmEast (100°)18.5 km/hMostly Cloudy
3:41 PM30 °C24 °C70 %1015.6 hPa11.3 kmEast (100°)18.5 km/hMostly Cloudy
4:41 PM29 °C24 °C74 %1015.9 hPa11.3 kmENE (60°)16.7 km/hMostly Cloudy
5:41 PM29 °C24 °C74 %1015.9 hPa11.3 kmEast (80°)18.5 km/hScattered Clouds
6:43 PM28 °C24 °C79 %1015.6 hPa11.3 kmEast (80°)20.4 km/hPartly Cloudy
7:41 PM28 °C25 °C84 %1016.3 hPa11.3 kmENE (70°)11.1 km/hPartly Cloudy
8:45 PM27 °C24 °C84 %1016.6 hPa11.3 kmNE (50°)7.4 km/hPartly Cloudy
9:48 PM27 °C24 °C84 %1016.6 hPa11.3 kmENE (60°)9.3 km/hPartly Cloudy
10:47 PM27 °C24 °C84 %1016.9 hPa11.3 kmENE (60°)9.3 km/hPartly Cloudy
11:46 PM26 °C24 °C89 %1016.6 hPa11.3 kmEast (90°)9.3 km/hClear
Hourly data recorded from MMUN, located 0 kilometers away from Cancun, Quintana Roo







STORIES FROM OUR PARTNERS